Content
SEND FEEDBACK

Daily
Averages
Monthly
Summary
Austria

KLAGENFURT, AUSTRIA


Home > Europe > Austria
Elevation: 1445 feet     Latitude: 46 38N     Longitude: 014 20E

WEATHER
 
SELECT A DAY
Number of Records: 311,044;   Date Range: 7/1/96 - 7/28/14
 
SHARE

PRINT THIS DATA

[ ← Previous Day ]
WEATHER ALMANAC - FEBRUARY 13, 2013
[ Next Day → ]
[ °C ]   °F
Weather ElementAverageHighLow
Temperature26.6 °F31 °F (4:00 pm)19 °F (1:00 am)
Dewpoint24.9 °F30.2 °F (2:50 pm)17.6 °F (12:50 am)
Humidity93.2 %100 % (2:50 pm)85 % (10:00 am)
Barometer29.99 in30.19 in (10:00 pm)29.86 in (12:50 am)
Wind Speed3 mph5.8 mph (1:50 am)
Weather ElementAverage
Visibility2.3 mi
Wind DirectionSSW (195.8 °)

Weather ElementTotal
Precipitation---
Heating Degree Days40 (Base 65)
Averaged from 55 records on February 13, 2013
WEATHER CONDITIONS BREAKOUT
WIND DIRECTION BREAKOUT
WEATHER BY HOUR - FEBRUARY 13, 2013
[ °C ]   °F
Local TimeTemperatureDewpointHumidityBarometerVisibilityWind DirectionWind SpeedGust SpeedPrecipitationEventsConditions
12:50 AM19.4 °F17.6 °F93 %29.86 in3.1 miNW (310°)2.3 mphOvercast
1:00 AM19.0 °F18.0 °F95 %29.98 in3.0 miNW (310°)2.2 mph
1:20 AM19.4 °F17.6 °F93 %29.86 inNW (310°)4.6 mphOvercast
1:50 AM19.4 °F17.6 °F93 %29.86 in3.7 miNW (310°)5.8 mphOvercast
2:20 AM21.2 °F19.4 °F93 %29.86 in4.3 miNW (310°)3.5 mphMostly Cloudy
2:50 AM21.2 °F19.4 °F93 %29.89 in4.3 miWNW (300°)3.5 mphOvercast
3:20 AM21.2 °F19.4 °F93 %29.89 in4.3 miNW (310°)4.6 mphMostly Cloudy
3:50 AM21.2 °F19.4 °F93 %29.89 in2.5 miNW (310°)3.5 mphOvercast
4:00 AM21.0 °F20.0 °F93 %29.99 in2.0 miNW (310°)4.5 mphMist
4:20 AM21.2 °F19.4 °F93 %29.89 in1.9 miWNW (300°)3.5 mphMostly Cloudy
4:50 AM23.0 °F21.2 °F93 %29.89 in1.9 miVariable2.3 mphMostly Cloudy
5:20 AM23.0 °F21.2 °F93 %29.89 in1.9 miVariable2.3 mphMostly Cloudy
5:50 AM23.0 °F21.2 °F93 %29.89 in1.9 miNW (320°)2.3 mphOvercast
6:20 AM23.0 °F21.2 °F93 %29.92 in3.1 miNW (320°)3.5 mphOvercast
6:50 AM23.0 °F21.2 °F93 %29.92 in3.1 miNW (310°)4.6 mphOvercast
7:00 AM23.0 °F21.0 °F90 %30.03 in3.0 miNW (310°)4.5 mphMist
7:20 AM23.0 °F21.2 °F93 %29.92 in2.8 miWest (280°)4.6 mphOvercast
7:50 AM24.8 °F23.0 °F93 %29.95 in2.8 miNW (310°)2.3 mphOvercast
8:20 AM24.8 °F23.0 °F93 %29.95 in3.1 miWNW (300°)4.6 mphOvercast
8:50 AM24.8 °F23.0 °F93 %29.95 in3.1 miNW (310°)4.6 mphOvercast
9:20 AM24.8 °F23.0 °F93 %29.95 in3.1 miNW (310°)3.5 mphSnowLight Snow
9:50 AM26.6 °F24.8 °F93 %29.98 in2.2 miNW (310°)3.5 mphSnowLight Snow
10:00 AM27.0 °F24.0 °F85 %30.07 in2.0 miNW (310°)4.5 mphSnowLight Snow
10:20 AM26.6 °F24.8 °F93 %29.98 in1.9 miNW (320°)3.5 mphSnowLight Snow
10:50 AM28.4 °F24.8 °F86 %29.98 in1.9 miNW (310°)3.5 mphSnowLight Snow
11:20 AM28.4 °F24.8 °F86 %29.98 in1.6 miNW (310°)4.6 mphSnowLight Snow
11:50 AM28.4 °F26.6 °F93 %29.98 in1.6 miNW (320°)4.6 mphSnowLight Snow
12:20 PM28.4 °F26.6 °F93 %29.98 in1.6 miNW (310°)3.5 mphSnowLight Snow
12:50 PM28.4 °F26.6 °F93 %29.98 in1.2 miNW (320°)3.5 mphSnowLight Snow
1:00 PM29.0 °F27.0 °F88 %30.08 in1.0 miNW (320°)4.5 mphSnowLight Snow
1:20 PM30.2 °F28.4 °F93 %30.01 in1.4 miVariable3.5 mphSnowLight Snow
1:50 PM30.2 °F28.4 °F93 %29.98 in1.6 miVariable1.2 mphSnowLight Snow
2:20 PM30.2 °F28.4 °F93 %29.98 in1.6 miVariable1.2 mphSnowLight Snow
2:50 PM30.2 °F30.2 °F100 %29.98 in1.6 miVariable2.3 mphSnowLight Snow
3:20 PM30.2 °F28.4 °F93 %30.01 in1.6 miVariable2.3 mphSnowLight Snow
3:50 PM30.2 °F28.4 °F93 %30.01 in1.6 miVariable2.3 mphSnowLight Snow
4:00 PM31.0 °F29.0 °F90 %30.09 in2.0 mi°2.2 mphSnowLight Snow
4:20 PM30.2 °F28.4 °F93 %30.01 in1.6 miVariable1.2 mphSnowLight Snow
4:50 PM30.2 °F28.4 °F93 %30.01 in1.6 miVariable1.2 mphSnowLight Snow
5:20 PM30.2 °F28.4 °F93 %30.04 in1.9 miVariable1.2 mphSnowLight Snow
5:50 PM30.2 °F28.4 °F93 %30.04 in1.9 miVariable2.3 mphSnowLight Snow
6:20 PM30.2 °F28.4 °F93 %30.04 in1.9 miWNW (300°)2.3 mphSnowLight Snow
6:50 PM30.2 °F28.4 °F93 %30.06 in1.9 miVariable1.2 mphSnowLight Snow
7:00 PM30.0 °F29.0 °F95 %30.14 in2.0 mi°2.2 mphSnowLight Snow
7:20 PM30.2 °F28.4 °F93 %30.06 in1.9 miVariable1.2 mphSnowLight Snow
7:50 PM30.2 °F28.4 °F93 %30.06 in2.2 miVariable1.2 mphSnowLight Snow
8:20 PM30.2 °F28.4 °F93 %30.06 in2.2 miWNW (290°)2.3 mphSnowLight Snow
8:50 PM30.2 °F28.4 °F93 %30.09 in1.9 miVariable1.2 mphSnowLight Snow
9:20 PM30.2 °F28.4 °F93 %30.09 in1.9 miVariable1.2 mphSnowLight Snow
9:50 PM30.2 °F28.4 °F93 %30.09 in2.2 miVariable2.3 mphSnowLight Snow
10:00 PM29.0 °F28.0 °F97 %30.19 in2.0 mi°2.2 mphSnowLight Snow
10:20 PM28.4 °F28.4 °F100 %30.09 in2.5 miVariable2.3 mphSnowLight Snow
10:50 PM28.4 °F28.4 °F100 %30.09 in2.5 miWNW (300°)4.6 mphSnowLight Snow
11:20 PM28.4 °F28.4 °F100 %30.09 in2.5 miNW (310°)4.6 mphSnowLight Snow
11:50 PM28.4 °F28.4 °F100 %30.12 inWNW (300°)3.5 mphSnowSnow
Hourly data recorded from LOWK, located miles away from Klagenfurt, Austria







STORIES FROM OUR PARTNERS